Das Wetter in  D-61279 Heinzenberg / Taunus





Wetter Minimum- & Maximum-Werte im September 2008

Standort: Heinzenberg / Taunus - Höhe 297 m         8° 24' 1" Ost 50° 21' 51" Nord
(   3-stündige Aktualisierung    letzte Aktualisierung um 20:46 am 30.09.2008  )


Messgrösse

Minimum

Maximum

Durchschnitt

Temperatur West /
Luftfeuchte West
Anklicken für Monats-Diagramm

0,5 °C

07:45
19.09.2008

44 %

17:20
09.09.2008

26,4 °C

16:02
11.09.2008

94 %

23:19
12.09.2008

Temp

11,8 °C

Feuchte

80 %

Temperatur Ost /
Luftfeuchte Ost
Anklicken für Monats-Diagramm

0,4 °C

07:50
19.09.2008

--

--
--

26,2 °C

15:02
11.09.2008

--

--
--

11,9 °C

--

Luftdruck Anklicken für Monats-Diagramm

1001,5 hPa

22:16
05.09.2008

1036,2 hPa

08:57
26.09.2008

1019,0 hPa

Taupunkt

-1,7 °C

07:45
19.09.2008

18,0 °C

13:37
11.09.2008

8,2 °C

Windchill
( gefühlte Temperatur )

-1,8 °C

08:11
30.09.2008

26,0 °C

15:37
11.09.2008

10,4 °C

Windgeschwindigkeit /
Windrichtung
Anklicken für Monats-Diagramm

---

40,1 km/h / W-SW

14:03
07.09.2008

6,8 km/h
W-SW

Helligkeit /
Sonnenschein
Anklicken für Monats-Diagramm
Anklicken für Monats-Diagramm

Sonnenschein:

114:46 Stunden

Max: 11:10 Std am
09.09.2008

98 klux

12:13
07.09.2008

23,8 klux

Solarstrahlung Anklicken für Monats-Diagramm

---

670 W/m²

12:13
07.09.2008

175 W/m²

Regenmenge
    September 2008
Anklicken für Monats-Diagramm

Insgesamt 70,7 l/m²

in 61:21 Stunden
an 17 Tagen

15,5 l/m²

22:46
30.09.2008

Gesamtmenge

70,7 l/m²

Regen-Tage
    September 2008
Anklicken für Monats-Diagramm

>   0 mm/Tag

>   2 mm/Tag

>   5 mm/Tag

> 10 mm/Tag

> 20 mm/Tag

17 Tage     
7 Tage     
4 Tage     
4 Tage     
0 Tage     

Eisige Tage September 2008 / 2007

Tmin ≤ -10°C     

0 Tage

/

0 Tage

Eistage September 2008 / 2007

Tmax <     0°C     

0 Tage

/

0 Tage

Frosttage September 2008 / 2007

Tmin ≤     0°C     

0 Tage

/

0 Tage

Kalte Tage September 2008 / 2007

Tmax <   10°C     

0 Tage

/

0 Tage

Warme Tage September 2008 / 2007

Tmax ≥   20°C     

6 Tage

/

8 Tage

Sommertage September 2008 / 2007

Tmax ≥   25°C     

  1 Tag

/

  1 Tag

Heisse Tage September 2008 / 2007

Tmax ≥   30°C     

0 Tage

/

0 Tage


Monatsdiagramm September 2008

Die Kurven zeigen den Durchschnittswert des jeweiligen Tages an


Wetter-Monatsübersicht September 2008
Datum
  Temperatur
   Luftdruck
   Wind
  Regen
   Luftfeuchte
   Helligkeit

Sonnen-
schein

Ø
Temp.

Min.
Temp.

Max.
Temp.

Ø
Luftdruck

Min.
Luftdruck

Max.
Luftdruck

Ø-Geschw.
Haupt-Richtg.

Max.
Wind

Menge /
Dauer

Ø
Feuchte

Min.
Feuchte

Max.
Feuchte

Ø
Helligkeit

Max.
Helligkeit

1.
September
17,9 °C12,7 °C
23:53
22,5 °C
15:37
1015,5 hPa1012,9 hPa
03:22
1018,6 hPa
23:53
8,1 km/h
W-SW
31,3 km/h
06:42  
14,4 l/m²
2:30 Stunden
77 %64 %
16:22
91 %
09:42
27,0 klux91,3 klux
11:37
3:15 Std 
2.
September
16,5 °C10,6 °C
06:23
22,7 °C
15:28
1012,5 hPa1006,5 hPa
23:14
1018,7 hPa
00:53
12,6 km/h
W-SW
33,0 km/h
22:44  
---
73 %55 %
16:08
91 %
09:03
33,5 klux91,5 klux
13:23
5:51 Std 
3.
September
13,6 °C10,4 °C
21:59
18,7 °C
01:24
1007,9 hPa1006,5 hPa
01:24
1009,6 hPa
22:30
10,8 km/h
W-SW
37,1 km/h
01:24  
11,7 l/m²
9:05 Stunden
83 %66 %
00:04
92 %
23:05
9,7 klux35,7 klux
11:19
--- 
4.
September
11,7 °C8,4 °C
07:25
16,4 °C
16:55
1008,7 hPa1007,8 hPa
16:55
1009,7 hPa
01:50
7,0 km/h
W-SW
33,7 km/h
17:05  
0,2 l/m²
45 Minuten
85 %68 %
17:10
93 %
09:05
24,0 klux86,1 klux
12:20
3:05 Std 
5.
September
15,3 °C10,3 °C
02:01
19,9 °C
14:21
1006,2 hPa1001,5 hPa
22:16
1009,6 hPa
02:01
6,8 km/h
O-SO
37,8 km/h
23:47  
1,2 l/m²
1:05 Stunden
82 %70 %
15:26
91 %
09:56
23,5 klux76,5 klux
11:46
2:40 Std 
6.
September
15,9 °C14,5 °C
23:18
18,2 °C
13:32
1006,5 hPa1002,6 hPa
00:02
1010,1 hPa
23:18
13,3 km/h
W-SW
33,7 km/h
11:07  
4,9 l/m²
6:50 Stunden
87 %79 %
13:42
91 %
01:07
13,9 klux50,5 klux
13:07
--- 
7.
September
15,1 °C12,4 °C
07:58
18,8 °C
15:48
1011,1 hPa1009,1 hPa
00:18
1013,2 hPa
22:39
15,9 km/h
W-SW
40,1 km/h
14:03  
---
15 Minuten
79 %67 %
15:53
89 %
05:53
31,0 klux97,9 klux
12:13
4:55 Std 
8.
September
15,4 °C11,2 °C
23:55
21,2 °C
16:04
1016,4 hPa1013,2 hPa
00:04
1019,8 hPa
23:55
14,6 km/h
W-SW
35,5 km/h
11:34  
---
20 Minuten
73 %54 %
16:09
83 %
03:44
35,7 klux85,9 klux
12:59
6:45 Std 
9.
September
15,3 °C7,9 °C
06:30
24,6 °C
16:05
1017,5 hPa1014,3 hPa
18:50
1020,2 hPa
06:30
6,7 km/h
W-SW
35,8 km/h
14:20  
---
71 %44 %
17:20
91 %
10:25
41,9 klux71,7 klux
13:35
11:10 Std 
10.
September
17,6 °C13,1 °C
04:31
23,0 °C
16:01
1016,2 hPa1015,3 hPa
01:41
1017,3 hPa
08:16
7,0 km/h
W-SW
22,9 km/h
18:11  
---
77 %67 %
16:06
86 %
23:27
25,3 klux74,4 klux
15:31
3:30 Std 
11.
September
18,1 °C12,3 °C
07:27
26,4 °C
16:02
1012,9 hPa1009,2 hPa
18:57
1016,4 hPa
03:17
5,0 km/h
SO
26,3 km/h
15:22  
---
25 Minuten
79 %56 %
15:57
93 %
09:52
31,2 klux81,0 klux
11:27
5:20 Std 
12.
September
14,7 °C12,8 °C
21:43
16,7 °C
15:38
1010,8 hPa1008,0 hPa
03:13
1015,5 hPa
21:58
4,2 km/h
W-NW
28,6 km/h
16:53  
11,2 l/m²
8:25 Stunden
90 %84 %
00:03
94 %
23:19
6,3 klux18,7 klux
11:08
--- 
13.
September
11,8 °C8,3 °C
23:55
15,6 °C
17:29
1016,2 hPa1014,4 hPa
03:49
1020,2 hPa
23:55
7,7 km/h
NO
26,4 km/h
15:44  
4,6 l/m²
7:15 Stunden
86 %65 %
18:34
94 %
00:04
12,6 klux49,6 klux
16:34
2:45 Std 
14.
September
9,4 °C4,9 °C
05:50
15,0 °C
17:15
1022,5 hPa1020,2 hPa
00:00
1024,4 hPa
23:51
6,4 km/h
NO
26,8 km/h
12:45  
---
72 %57 %
17:30
84 %
07:55
34,6 klux93,3 klux
13:10
7:05 Std 
15.
September
8,4 °C4,6 °C
07:41
11,5 °C
15:56
1023,9 hPa1022,9 hPa
15:56
1024,8 hPa
07:41
3,1 km/h
NO
20,6 km/h
17:26  
---
10 Minuten
81 %72 %
16:21
88 %
08:56
12,8 klux33,3 klux
12:01
5 Min 
16.
September
9,2 °C4,9 °C
06:57
13,0 °C
15:57
1023,4 hPa1021,7 hPa
16:57
1024,7 hPa
08:22
4,0 km/h
NO
18,4 km/h
15:17  
---
78 %62 %
17:02
90 %
08:22
16,8 klux55,1 klux
13:22
10 Min 
17.
September
8,2 °C3,1 °C
07:23
13,2 °C
14:13
1024,1 hPa1022,7 hPa
14:13
1025,0 hPa
07:23
4,1 km/h
O-SO
22,2 km/h
13:43  
---
73 %58 %
18:19
88 %
09:03
29,1 klux83,4 klux
13:08
3:45 Std 
18.
September
7,4 °C1,3 °C
05:09
15,5 °C
16:24
1024,5 hPa1022,4 hPa
16:24
1026,3 hPa
06:49
6,6 km/h
SO
33,5 km/h
12:29  
---
70 %49 %
14:49
88 %
09:34
35,7 klux71,1 klux
12:09
9:15 Std 
19.
September
8,0 °C0,5 °C
07:45
17,2 °C
15:35
1026,0 hPa1024,9 hPa
00:00
1029,8 hPa
23:56
4,5 km/h
SO
19,7 km/h
12:35  
---
71 %48 %
15:45
88 %
10:00
37,1 klux69,6 klux
13:25
8:30 Std 
20.
September
8,3 °C2,8 °C
04:56
14,4 °C
16:41
1030,8 hPa1029,6 hPa
23:47
1032,8 hPa
10:11
3,0 km/h
SO
16,0 km/h
12:26  
---
74 %56 %
15:51
88 %
10:21
20,2 klux83,0 klux
14:21
1:00 Std 
21.
September
9,8 °C4,3 °C
06:27
18,3 °C
15:37
1025,4 hPa1021,2 hPa
17:12
1029,9 hPa
02:57
3,8 km/h
S-SO
19,8 km/h
13:42  
0,3 l/m²
1:35 Stunden
77 %56 %
15:42
88 %
09:42
29,2 klux87,5 klux
12:52
4:35 Std 
22.
September
9,8 °C7,5 °C
04:28
13,3 °C
18:43
1020,2 hPa1018,5 hPa
18:43
1022,1 hPa
01:03
2,6 km/h
NO
25,1 km/h
18:43  
0,6 l/m²
1:05 Stunden
84 %71 %
18:43
90 %
09:33
12,6 klux41,8 klux
12:18
25 Min 
23.
September
9,5 °C6,8 °C
06:14
12,8 °C
14:49
1018,3 hPa1016,6 hPa
15:49
1020,2 hPa
00:29
2,2 km/h
NW
13,6 km/h
15:59  
4,4 l/m²
7:15 Stunden
89 %82 %
15:04
93 %
10:24
13,7 klux45,2 klux
10:29
10 Min 
24.
September
10,6 °C7,7 °C
07:30
15,3 °C
15:35
1022,0 hPa1017,9 hPa
00:15
1026,3 hPa
23:41
2,4 km/h
NO
22,8 km/h
17:55  
0,2 l/m²
20 Minuten
90 %81 %
15:40
94 %
08:20
15,1 klux76,8 klux
15:20
45 Min 
25.
September
10,1 °C7,8 °C
03:11
13,7 °C
18:06
1029,2 hPa1026,2 hPa
00:01
1032,7 hPa
23:57
5,2 km/h
NO
19,8 km/h
11:36  
---
85 %71 %
18:11
93 %
06:11
13,2 klux52,4 klux
10:41
1:40 Std 
26.
September
10,0 °C3,9 °C
07:57
18,1 °C
16:17
1034,1 hPa1032,4 hPa
16:17
1036,2 hPa
08:57
5,1 km/h
NO
24,6 km/h
15:17  
---
76 %54 %
15:17
92 %
10:12
35,5 klux71,5 klux
13:27
9:45 Std 
27.
September
8,8 °C2,6 °C
06:33
18,6 °C
16:03
1032,2 hPa1028,3 hPa
17:08
1035,4 hPa
07:58
3,2 km/h
SO
17,0 km/h
14:18  
---
78 %57 %
16:08
92 %
11:03
33,7 klux63,1 klux
13:18
8:30 Std 
28.
September
9,4 °C2,4 °C
07:49
19,0 °C
15:44
1025,7 hPa1022,0 hPa
16:29
1029,2 hPa
07:44
3,6 km/h
SO
16,6 km/h
14:14  
---
78 %57 %
15:59
92 %
11:44
34,4 klux61,9 klux
13:19
9:20 Std 
29.
September
8,9 °C4,7 °C
05:10
14,6 °C
14:05
1018,2 hPa1014,4 hPa
17:35
1022,6 hPa
01:50
4,4 km/h
W
24,0 km/h
14:30  
1,5 l/m²
1:10 Stunden
83 %67 %
15:50
91 %
11:10
17,6 klux54,9 klux
13:50
30 Min 
30.
September
8,5 °C6,0 °C
04:21
10,1 °C
22:31
1010,5 hPa1003,4 hPa
23:46
1016,2 hPa
02:26
19,2 km/h
W-SW
34,2 km/h
23:06  
15,5 l/m²
12:51 Stunden
89 %83 %
10:06
92 %
18:36
8,3 klux23,4 klux
13:06
--- 



September
2008

Temperatur

  

Luftdruck

  

Wind

  

Regen

  

Luftfeuchte

  

Helligkeit

Sonnen-
schein

Ø

Min

Max

Ø

Min

Max

Ø

Max

Max

Ø

Min

Max

Ø

Max

Max

11,8 °C

0,5 °C

07:45 Uhr
19.09.2008

26,4 °C

16:02 Uhr
11.09.2008

1019,0 hPa

1001,5 hPa

22:16 Uhr
05.09.2008

1036,2 hPa

08:57 Uhr
26.09.2008

6,8 km/h

W-SW

40,1 km/h

14:03 Uhr
07.09.2008

15,5 l/m²

12:51 Stunden
30.09.2008

80 %

44 %

17:20 Uhr
09.09.2008

94 %

23:19 Uhr
12.09.2008

23,8 klux

97,9 klux

12:13 Uhr
07.09.2008

11:10 Std

am
09.09.2008

Gesamt

Gesamt

70,7 l/m²

17 Tage
61:21 h

114:46 Std


Wetter-Diagramme September 2008     Heinzenberg / Taunus   
TemperaturLuftfeuchte
SolarstrahlungLuftdruck
HelligkeitSonnenschein
RegenmengeRegendauer
Wind-GeschwindigkeitWind-Richtung